Radiation Dose at Monitoring Post of Fukushima Daini Nuclear Power Station
Date,Time,MP-1(microSv/h),MP-2(microSv/h),MP-3(microSv/h),MP-4(microSv/h),MP-5(microSv/h),MP-6(microSv/h),MP-7(microSv/h),Wind Direction,Wind Velocity(m/s),Rain
2022/10/09,00:00,0.146,0.134,0.211,0.204,0.210,0.117,0.078,west-northwest,6.2,Yes
2022/10/09,00:10,0.146,0.135,0.210,0.204,0.212,0.116,0.078,northwest,6.2,Yes
2022/10/09,00:20,0.147,0.134,0.211,0.203,0.208,0.116,0.077,northwest,6.5,Yes
2022/10/09,00:30,0.145,0.134,0.211,0.205,0.211,0.116,0.079,northwest,6.2,Yes
2022/10/09,00:40,0.148,0.135,0.212,0.204,0.211,0.118,0.079,northwest,6.2,Yes
2022/10/09,00:50,0.146,0.134,0.211,0.206,0.212,0.117,0.079,northwest,5.6,Yes
2022/10/09,01:00,0.146,0.134,0.209,0.204,0.211,0.117,0.078,northwest,6.0,Yes
2022/10/09,01:10,0.145,0.133,0.212,0.204,0.210,0.116,0.077,northwest,5.6,Yes
2022/10/09,01:20,0.144,0.133,0.210,0.204,0.210,0.115,0.077,northwest,7.4,No
2022/10/09,01:30,0.145,0.133,0.211,0.203,0.209,0.116,0.076,northwest,8.7,No
2022/10/09,01:40,0.145,0.132,0.210,0.204,0.209,0.115,0.076,northwest,8.1,No
2022/10/09,01:50,0.145,0.133,0.209,0.203,0.208,0.115,0.075,northwest,8.1,No
2022/10/09,02:00,0.144,0.132,0.210,0.204,0.210,0.114,0.075,northwest,7.3,No
2022/10/09,02:10,0.143,0.132,0.209,0.203,0.208,0.114,0.074,northwest,7.6,No
2022/10/09,02:20,0.144,0.130,0.210,0.203,0.208,0.114,0.075,northwest,8.2,No
2022/10/09,02:30,0.143,0.132,0.209,0.203,0.209,0.114,0.075,northwest,8.5,No
2022/10/09,02:40,0.144,0.132,0.210,0.202,0.209,0.113,0.075,northwest,9.2,No
2022/10/09,02:50,0.144,0.132,0.211,0.203,0.209,0.113,0.075,northwest,8.7,No
2022/10/09,03:00,0.145,0.130,0.208,0.203,0.208,0.114,0.075,northwest,8.2,No
2022/10/09,03:10,0.143,0.131,0.210,0.204,0.209,0.114,0.075,northwest,8.3,No
2022/10/09,03:20,0.144,0.130,0.211,0.204,0.208,0.115,0.074,northwest,7.6,No
2022/10/09,03:30,0.144,0.132,0.210,0.203,0.209,0.114,0.075,northwest,7.0,No
2022/10/09,03:40,0.143,0.131,0.210,0.204,0.208,0.114,0.075,northwest,5.9,No
2022/10/09,03:50,0.144,0.132,0.209,0.202,0.207,0.113,0.075,north-northwest,6.9,No
2022/10/09,04:00,0.143,0.132,0.209,0.204,0.209,0.114,0.074,northwest,7.3,No
2022/10/09,04:10,0.145,0.131,0.211,0.204,0.207,0.114,0.074,northwest,7.2,No
2022/10/09,04:20,0.145,0.132,0.211,0.203,0.209,0.114,0.074,northwest,7.0,No
2022/10/09,04:30,0.145,0.131,0.211,0.204,0.207,0.114,0.075,northwest,7.1,No
2022/10/09,04:40,0.144,0.131,0.210,0.204,0.209,0.114,0.075,northwest,7.2,No
2022/10/09,04:50,0.144,0.132,0.211,0.203,0.208,0.114,0.075,northwest,7.9,No
2022/10/09,05:00,0.145,0.132,0.210,0.205,0.209,0.114,0.075,northwest,7.6,No
2022/10/09,05:10,0.144,0.132,0.210,0.203,0.209,0.114,0.075,northwest,7.6,No
2022/10/09,05:20,0.145,0.131,0.210,0.204,0.208,0.115,0.075,northwest,7.8,No
2022/10/09,05:30,0.144,0.132,0.211,0.204,0.209,0.114,0.075,northwest,8.1,No
2022/10/09,05:40,0.145,0.131,0.211,0.204,0.207,0.113,0.074,northwest,7.3,No
2022/10/09,05:50,0.145,0.131,0.211,0.204,0.209,0.114,0.075,northwest,7.7,No
2022/10/09,06:00,0.144,0.132,0.210,0.204,0.208,0.114,0.075,northwest,7.7,No
2022/10/09,06:10,0.145,0.131,0.211,0.204,0.209,0.114,0.075,northwest,7.7,No
2022/10/09,06:20,0.144,0.132,0.212,0.203,0.208,0.114,0.076,northwest,7.8,No
2022/10/09,06:30,0.146,0.132,0.211,0.204,0.209,0.114,0.074,northwest,7.6,No
2022/10/09,06:40,0.144,0.131,0.211,0.204,0.208,0.115,0.074,north-northwest,7.9,No
2022/10/09,06:50,0.144,0.131,0.210,0.203,0.208,0.114,0.075,north-northwest,7.2,No
2022/10/09,07:00,0.145,0.132,0.211,0.205,0.210,0.115,0.075,northwest,7.1,No
2022/10/09,07:10,0.145,0.132,0.211,0.203,0.208,0.115,0.075,north-northwest,6.5,No
2022/10/09,07:20,0.145,0.132,0.209,0.206,0.210,0.115,0.075,north-northwest,6.6,No
2022/10/09,07:30,0.145,0.131,0.211,0.203,0.208,0.114,0.075,northwest,7.1,No
2022/10/09,07:40,0.145,0.131,0.211,0.205,0.210,0.114,0.075,north-northwest,7.1,No
2022/10/09,07:50,0.144,0.131,0.211,0.203,0.208,0.115,0.075,north-northwest,5.6,No
2022/10/09,08:00,0.145,0.132,0.209,0.205,0.210,0.115,0.075,north-northwest,5.1,No
2022/10/09,08:10,0.146,0.132,0.211,0.204,0.209,0.115,0.075,north-northwest,6.3,No
2022/10/09,08:20,0.145,0.133,0.211,0.204,0.210,0.115,0.075,northwest,6.0,No
2022/10/09,08:30,0.145,0.131,0.212,0.204,0.207,0.115,0.075,northwest,5.2,No
2022/10/09,08:40,0.146,0.132,0.210,0.205,0.209,0.115,0.075,north-northwest,5.9,No
2022/10/09,08:50,0.146,0.132,0.211,0.204,0.208,0.115,0.074,north-northwest,5.1,No
2022/10/09,09:00,0.146,0.131,0.211,0.205,0.209,0.114,0.075,north-northwest,6.4,No
2022/10/09,09:10,0.144,0.131,0.212,0.203,0.209,0.115,0.075,northwest,6.2,No
2022/10/09,09:20,0.146,0.132,0.211,0.203,0.207,0.115,0.075,north-northwest,6.5,No
2022/10/09,09:30,0.145,0.131,0.213,0.205,0.209,0.115,0.074,north-northwest,5.9,No
2022/10/09,09:40,0.145,0.133,0.210,0.203,0.209,0.114,0.075,northwest,5.8,No
2022/10/09,09:50,0.146,0.132,0.212,0.204,0.208,0.115,0.075,northwest,4.6,No
2022/10/09,10:00,0.145,0.132,0.212,0.205,0.211,0.115,0.075,northwest,4.1,No
2022/10/09,10:10,0.145,0.132,0.210,0.202,0.209,0.114,0.075,north-northwest,3.9,No
2022/10/09,10:20,0.146,0.131,0.212,0.203,0.208,0.115,0.075,north-northwest,3.5,No
2022/10/09,10:30,0.145,0.132,0.211,0.206,0.210,0.116,0.075,north-northwest,3.3,No
2022/10/09,10:40,0.146,0.131,0.211,0.204,0.209,0.114,0.074,north-northwest,2.4,No
2022/10/09,10:50,0.145,0.133,0.212,0.205,0.207,0.116,0.075,north-northwest,3.3,No
2022/10/09,11:00,0.145,0.132,0.211,0.205,0.210,0.115,0.075,north-northwest,4.6,No
2022/10/09,11:10,0.145,0.133,0.212,0.204,0.209,0.114,0.074,north-northwest,4.4,No
2022/10/09,11:20,0.145,0.134,0.212,0.208,0.209,0.116,0.075,north-northwest,4.0,No
2022/10/09,11:30,0.147,0.132,0.211,0.205,0.211,0.116,0.074,north-northwest,3.9,No
2022/10/09,11:40,0.146,0.133,0.213,0.206,0.208,0.115,0.075,north-northwest,4.0,No
2022/10/09,11:50,0.146,0.131,0.212,0.207,0.211,0.116,0.075,north-northwest,3.8,No
2022/10/09,12:00,0.146,0.132,0.213,0.205,0.209,0.116,0.074,north-northwest,3.7,No
2022/10/09,12:10,0.145,0.133,0.213,0.207,0.207,0.115,0.075,north-northwest,3.9,No
2022/10/09,12:20,0.146,0.132,0.211,0.205,0.211,0.116,0.074,north,2.8,No
2022/10/09,12:30,0.146,0.133,0.213,0.204,0.210,0.116,0.074,north-northwest,3.2,No
2022/10/09,12:40,0.145,0.132,0.212,0.207,0.207,0.115,0.074,north,3.8,No
2022/10/09,12:50,0.147,0.132,0.212,0.205,0.210,0.116,0.075,north,3.8,No
2022/10/09,13:00,0.146,0.132,0.213,0.205,0.210,0.116,0.075,north-northwest,3.7,No
2022/10/09,13:10,0.147,0.132,0.212,0.207,0.208,0.115,0.075,north-northwest,4.0,No
2022/10/09,13:20,0.146,0.133,0.213,0.204,0.210,0.115,0.075,north-northwest,3.2,No
2022/10/09,13:30,0.147,0.133,0.212,0.207,0.208,0.115,0.075,north-northwest,4.3,Yes
2022/10/09,13:40,0.146,0.132,0.212,0.205,0.208,0.116,0.075,north-northwest,4.4,No
2022/10/09,13:50,0.145,0.133,0.214,0.204,0.212,0.116,0.074,north-northwest,4.0,No
2022/10/09,14:00,0.146,0.133,0.211,0.207,0.209,0.116,0.075,north-northwest,4.5,No
2022/10/09,14:10,0.146,0.133,0.214,0.206,0.211,0.117,0.075,north-northwest,5.0,No
2022/10/09,14:20,0.147,0.132,0.212,0.206,0.211,0.116,0.074,north-northwest,4.8,No
2022/10/09,14:30,0.146,0.134,0.213,0.206,0.208,0.116,0.075,north-northwest,4.3,No
2022/10/09,14:40,0.148,0.132,0.215,0.205,0.211,0.117,0.074,north-northwest,4.4,No
2022/10/09,14:50,0.147,0.134,0.212,0.207,0.210,0.115,0.075,north-northwest,3.1,No
2022/10/09,15:00,0.147,0.133,0.215,0.206,0.209,0.115,0.075,north-northwest,4.2,No
2022/10/09,15:10,0.147,0.132,0.212,0.207,0.211,0.116,0.075,north-northwest,3.8,No
2022/10/09,15:20,0.146,0.133,0.214,0.206,0.209,0.116,0.075,north-northwest,4.6,No
2022/10/09,15:30,0.147,0.131,0.214,0.206,0.211,0.118,0.075,north-northwest,4.9,Yes
2022/10/09,15:40,0.146,0.133,0.214,0.207,0.210,0.116,0.075,north-northwest,4.5,No
2022/10/09,15:50,0.148,0.133,0.214,0.207,0.211,0.116,0.075,northwest,5.4,No
2022/10/09,16:00,0.146,0.134,0.213,0.208,0.210,0.116,0.075,north-northwest,5.1,No
2022/10/09,16:10,0.146,0.132,0.213,0.206,0.210,0.116,0.075,north-northwest,5.0,No
2022/10/09,16:20,0.147,0.134,0.213,0.207,0.211,0.117,0.076,northwest,5.9,No
2022/10/09,16:30,0.146,0.133,0.213,0.206,0.210,0.116,0.075,northwest,5.7,No
2022/10/09,16:40,0.145,0.134,0.213,0.208,0.212,0.117,0.075,northwest,6.7,No
2022/10/09,16:50,0.146,0.133,0.214,0.206,0.210,0.116,0.075,northwest,7.2,No
2022/10/09,17:00,0.146,0.134,0.214,0.207,0.212,0.117,0.075,northwest,7.4,No
2022/10/09,17:10,0.146,0.132,0.214,0.206,0.211,0.115,0.075,northwest,6.6,No
2022/10/09,17:20,0.146,0.133,0.214,0.207,0.211,0.117,0.075,northwest,7.2,No
2022/10/09,17:30,0.147,0.132,0.213,0.206,0.209,0.116,0.076,northwest,6.9,No
2022/10/09,17:40,0.147,0.133,0.213,0.207,0.212,0.116,0.075,north-northwest,6.9,No
2022/10/09,17:50,0.146,0.132,0.214,0.207,0.209,0.116,0.075,north-northwest,7.0,No
2022/10/09,18:00,0.147,0.133,0.214,0.207,0.211,0.117,0.076,north-northwest,7.6,No
2022/10/09,18:10,0.148,0.133,0.213,0.207,0.210,0.116,0.075,north-northwest,7.0,No
2022/10/09,18:20,0.147,0.133,0.214,0.208,0.211,0.117,0.075,north-northwest,6.7,No
2022/10/09,18:30,0.147,0.133,0.214,0.207,0.210,0.116,0.076,north-northwest,7.3,No
2022/10/09,18:40,0.147,0.134,0.214,0.207,0.212,0.117,0.075,north-northwest,7.3,No
2022/10/09,18:50,0.147,0.133,0.213,0.206,0.209,0.118,0.076,north-northwest,7.6,No
2022/10/09,19:00,0.147,0.134,0.214,0.207,0.212,0.115,0.075,north-northwest,7.7,No
2022/10/09,19:10,0.146,0.134,0.213,0.207,0.209,0.117,0.076,north-northwest,7.4,No
2022/10/09,19:20,0.147,0.133,0.214,0.207,0.211,0.117,0.075,north-northwest,7.0,Yes
2022/10/09,19:30,0.146,0.133,0.213,0.207,0.210,0.117,0.075,north-northwest,6.8,Yes
2022/10/09,19:40,0.148,0.133,0.214,0.207,0.211,0.117,0.075,north-northwest,6.6,Yes
2022/10/09,19:50,0.148,0.133,0.213,0.207,0.209,0.117,0.075,north-northwest,6.8,Yes
2022/10/09,20:00,0.148,0.134,0.214,0.208,0.211,0.117,0.076,north-northwest,6.4,Yes
2022/10/09,20:10,0.149,0.134,0.215,0.209,0.211,0.118,0.077,north-northwest,6.8,Yes
2022/10/09,20:20,0.149,0.134,0.215,0.208,0.214,0.118,0.077,northwest,7.2,Yes
2022/10/09,20:30,0.150,0.137,0.216,0.209,0.211,0.119,0.078,north-northwest,6.4,Yes
2022/10/09,20:40,0.150,0.136,0.215,0.207,0.214,0.120,0.079,north-northwest,6.4,Yes
2022/10/09,20:50,0.150,0.136,0.215,0.210,0.211,0.120,0.078,north-northwest,6.4,Yes
2022/10/09,21:00,0.148,0.136,0.215,0.207,0.214,0.119,0.079,north-northwest,6.5,Yes
2022/10/09,21:10,0.149,0.135,0.216,0.208,0.211,0.119,0.077,north-northwest,6.9,Yes
2022/10/09,21:20,0.148,0.136,0.215,0.207,0.213,0.119,0.078,north-northwest,7.0,Yes
2022/10/09,21:30,0.150,0.135,0.215,0.208,0.211,0.119,0.078,northwest,6.8,Yes
2022/10/09,21:40,0.149,0.135,0.216,0.208,0.212,0.118,0.077,north-northwest,6.8,Yes
2022/10/09,21:50,0.149,0.135,0.214,0.207,0.211,0.118,0.078,north-northwest,7.5,Yes
2022/10/09,22:00,0.148,0.135,0.215,0.208,0.211,0.118,0.077,north-northwest,7.4,Yes
2022/10/09,22:10,0.148,0.134,0.215,0.205,0.211,0.118,0.077,north-northwest,6.7,Yes
2022/10/09,22:20,0.148,0.135,0.216,0.207,0.213,0.118,0.078,north-northwest,7.6,Yes
2022/10/09,22:30,0.148,0.135,0.215,0.206,0.211,0.119,0.078,north-northwest,7.2,Yes
2022/10/09,22:40,0.149,0.135,0.215,0.207,0.212,0.120,0.078,northwest,8.5,Yes
2022/10/09,22:50,0.149,0.136,0.216,0.207,0.213,0.120,0.078,northwest,9.5,Yes
2022/10/09,23:00,0.149,0.135,0.215,0.207,0.212,0.119,0.078,northwest,9.5,Yes
2022/10/09,23:10,0.148,0.135,0.216,0.208,0.213,0.118,0.079,northwest,8.4,Yes
2022/10/09,23:20,0.149,0.135,0.214,0.206,0.211,0.119,0.078,northwest,8.7,Yes
2022/10/09,23:30,0.148,0.135,0.214,0.208,0.213,0.119,0.078,northwest,9.0,Yes
2022/10/09,23:40,0.149,0.135,0.215,0.207,0.211,0.118,0.078,northwest,8.1,Yes
2022/10/09,23:50,0.148,0.135,0.214,0.207,0.213,0.117,0.078,northwest,7.9,Yes
